SL-16 DEB, 22397

Orbit data source: Space-Track

SL-16 DEB, 22397 is space debris in LEO originally from a launch on Fri, 25 Dec 1992 UTC launched from the Tyuratam Missile And Space Complex (TTMTR). Debris objects in space refer to the collection of defunct objects orbiting the Earth. Examples of debris include non-operational satellites, rocket bodies, and fragments generated from explosions, collisions, or faulty payload assembly.

Loading next visibility...
Identifier
22397, 1992-093CN
Orbit
LEO
Country
Flag of CISCIS
Related business
Manufacturer
Unknown
Mission
Spacecraft
Bus & Motor
Unknown
Mass
Unknown
Launch date (UTC)
1992-12-25 (33 years ago)
Launch vehicle
Unknown
Launch site
Tyuratam Missile And Space Complex (TTMTR)
Object type
Payload
Rocket body
Debris
Shape & HBR
Unknown shape, 0.1 m
Radar Cross Section
Small (<0.1 m²)

Expand to show TLE details & history
Last TLE update: 14 hours ago

TLE from 14 hours ago
0 SL-16 DEB
1 22397U 92093CN  26126.87476302  .00001272  00000-0  49393-3 0  9993
2 22397  70.8014 207.5642 0036634 258.7598 100.9414 14.31537357723906
Epoch: 2026-05-06T20:59Z
TLE epoch observation values (Epoch: 2026-05-06T20:59:39.524Z)
Latitude
-0.00002°
Longitude
27.92052°
Altitude
794.078 km
Speed
7.454 km/s
True Right ascension
13h 50m 15s
True Declination
0° 00' 00"
Sunlit
Object was in full shadow at epoch
Visualization orbit readout
Latitude
Unknown
Longitude
Unknown
Altitude
Unknown
Speed
Unknown
Apparent Right ascension
Unknown
Apparent Declination
Unknown
Sunlit
N/A
Visualization observer readout
Local Sidereal Time
19:07:36
Azimuth
Unknown
Elevation
Unknown
Doppler factor
Unknown
Orbital elements
Apogee altitude
810.765 km
Perigee altitude
758.285 km
Semi-major axis
7,162.662 km
Eccentricity
0.00366
Inclination
70.8014°
RAAN
207.5642°
Arg. of periapsis
258.7598°
True anomaly
101.3532°
Mean anomaly
100.9414°
Eccentric anomaly
101.14734°
Mean motion
3.5804 °/min
Orbital period
100.55 mins
BSTAR
0.00049393
Loading maneuver chart data...
Computing Atmospheric mass density...
Loading historical data...
Loading historical data...
Loading historical data...
Loading historical data...
Loading historical data...
Loading historical data...
Loading historical data...

Documentation

Showing up to 5 results
|